St. Francis, KS

6:05 AM CDT on March 30, 2017 (GMT -0500)
Cheyenne County Municipal

Weather History for KSYF - April, 2013

Change the Weather History Date:

Sunday, April 7, 2013

  Actual Average Record
Temperature  
Mean Temperature 62 °F -  
Max Temperature 73 °F 68 °F 73 °F (2013)
Min Temperature 44 °F 34 °F 34 °F (2016)
Degree Days  
Heating Degree Days 4    
Growing Degree Days 12 (Base 50)    
Moisture  
Dew Point 30 °F    
Average Humidity 35    
Maximum Humidity 62    
Minimum Humidity 13    
Precipitation  
Precipitation 0.00 in - - ()
Sea Level Pressure  
Sea Level Pressure 29.74 in    
Wind  
Wind Speed 9 mph (WSW)    
Max Wind Speed 26 mph    
Max Gust Speed 33 mph    
Visibility 10 miles    
Events Rain    
Averages and records for this station are not official NWS values.
T = Trace of Precipitation, MM = Missing Value Source: NWS Daily Summary

Daily Weather History Graph

Daily Weather History Graph

Search for Another Location

Airport or City:

Trip Planner

Search our weather history database for the weather conditions in past years. The results will help you decide how hot, cold, wet, or windy it might be!

Date:

Astronomy

Apr. 07, 2013 Rise Set
Actual Time 7:21 AM CDT 8:17 PM CDT
Civil Twilight 6:53 AM CDT 8:45 PM CDT
Nautical Twilight 6:21 AM CDT 9:17 PM CDT
Astronomical Twilight 5:47 AM CDT 9:51 PM CDT
Moon 5:39 AM CDT (4/7) 5:52 PM CDT (4/7)
Length of Visible Light 13h 51m
Length of Day
12h 56m
Waning Crescent, 8% of the Moon is Illuminated
Apr 7
Waning Crescent
Apr 10
New
Apr 18
First Quarter
Apr 25
Full
May 2
Last Quarter

Hourly Weather History & Observations

Time (CDT) Temp. Windchill Dew Point Humidity Pressure Visibility Wind Dir Wind Speed Gust Speed Precip Events Conditions
12:15 AM 57.2 °F - 25.3 °F 29% 29.86 in 10.0 mi South 4.6 mph - N/A   Overcast
12:55 AM 63.3 °F - 25.7 °F 24% 29.86 in 10.0 mi North 26.5 mph 33.4 mph N/A Rain Light Rain
1:15 AM 64.2 °F - 23.9 °F 22% 29.87 in 10.0 mi SSW 10.4 mph 16.1 mph N/A   Overcast
1:35 AM 57.7 °F - 26.4 °F 30% 29.88 in 10.0 mi SW 6.9 mph - N/A   Overcast
1:55 AM 59.7 °F - 24.8 °F 26% 29.87 in 10.0 mi WSW 8.1 mph - N/A   Overcast
2:15 AM 59.2 °F - 26.4 °F 29% 29.87 in 10.0 mi WSW 5.8 mph - N/A   Overcast
2:35 AM 57.0 °F - 28.2 °F 33% 29.86 in 10.0 mi South 3.5 mph - N/A   Overcast
2:55 AM 58.8 °F - 27.3 °F 30% 29.84 in 10.0 mi SSE 10.4 mph - N/A   Overcast
3:15 AM 59.2 °F - 26.4 °F 29% 29.83 in 10.0 mi South 12.7 mph - N/A   Mostly Cloudy
3:35 AM 58.6 °F - 27.7 °F 31% 29.83 in 10.0 mi South 17.3 mph - N/A   Mostly Cloudy
3:55 AM 58.1 °F - 32.4 °F 38% 29.82 in 10.0 mi SSW 15.0 mph 19.6 mph N/A   Overcast
4:15 AM 55.6 °F - 34.2 °F 44% 29.82 in 10.0 mi South 9.2 mph - N/A   Scattered Clouds
4:35 AM 54.0 °F - 35.6 °F 50% 29.81 in 10.0 mi South 6.9 mph - N/A   Scattered Clouds
4:55 AM 52.9 °F - 36.3 °F 53% 29.81 in 10.0 mi WNW 3.5 mph - N/A   Mostly Cloudy
5:15 AM 52.9 °F - 36.0 °F 53% 29.79 in 10.0 mi Calm Calm - N/A   Mostly Cloudy
5:35 AM 54.3 °F - 36.9 °F 52% 29.78 in 10.0 mi South 10.4 mph - N/A   Overcast
5:55 AM 53.4 °F - 37.0 °F 54% 29.78 in 10.0 mi South 11.5 mph - N/A   Mostly Cloudy
6:15 AM 53.6 °F - 37.6 °F 55% 29.79 in 10.0 mi SSE 11.5 mph - N/A   Overcast
6:35 AM 53.1 °F - 37.9 °F 57% 29.78 in 10.0 mi SSE 9.2 mph - N/A   Overcast
6:55 AM 51.4 °F - 37.8 °F 60% 29.78 in 10.0 mi SSE 9.2 mph - N/A   Mostly Cloudy
7:15 AM 50.9 °F - 37.8 °F 61% 29.78 in 10.0 mi SSE 10.4 mph - N/A   Mostly Cloudy
7:35 AM 51.3 °F - 37.8 °F 60% 29.78 in 10.0 mi South 10.4 mph - N/A   Overcast
7:55 AM 50.2 °F - 37.6 °F 62% 29.78 in 10.0 mi South 8.1 mph - N/A   Mostly Cloudy
8:15 AM 51.1 °F - 38.1 °F 61% 29.78 in 10.0 mi South 5.8 mph - N/A   Overcast
8:35 AM 53.8 °F - 37.2 °F 54% 29.78 in 10.0 mi South 8.1 mph - N/A   Overcast
8:55 AM 55.4 °F - 37.6 °F 51% 29.78 in 10.0 mi SW 4.6 mph - N/A   Overcast
9:15 AM 56.7 °F - 38.5 °F 51% 29.79 in 10.0 mi SW 5.8 mph - N/A   Mostly Cloudy
9:35 AM 57.6 °F - 37.9 °F 48% 29.79 in 10.0 mi West 9.2 mph - N/A   Mostly Cloudy
9:55 AM 59.0 °F - 37.6 °F 45% 29.79 in 10.0 mi West 13.8 mph - N/A   Mostly Cloudy
10:15 AM 60.3 °F - 37.4 °F 43% 29.78 in 10.0 mi WSW 10.4 mph - N/A   Mostly Cloudy
10:35 AM 60.4 °F - 37.4 °F 42% 29.78 in 10.0 mi West 9.2 mph - N/A   Mostly Cloudy
10:55 AM 61.7 °F - 37.2 °F 40% 29.77 in 10.0 mi WSW 8.1 mph 18.4 mph N/A   Scattered Clouds
11:15 AM 63.0 °F - 36.5 °F 37% 29.77 in 10.0 mi West 6.9 mph - N/A   Clear
11:35 AM 65.1 °F - 35.4 °F 33% 29.76 in 10.0 mi West 9.2 mph - N/A   Clear
11:55 AM 65.1 °F - 35.4 °F 33% 29.76 in 10.0 mi WNW 5.8 mph - N/A   Clear
12:15 PM 66.0 °F - 34.5 °F 31% 29.74 in 10.0 mi NW 10.4 mph 16.1 mph N/A   Clear
12:35 PM 67.8 °F - 34.9 °F 30% 29.73 in 10.0 mi WNW 6.9 mph - N/A   Clear
12:55 PM 69.1 °F - 33.6 °F 27% 29.73 in 10.0 mi WNW 6.9 mph 10.4 mph N/A   Clear
1:15 PM 68.4 °F - 34.0 °F 28% 29.72 in 10.0 mi NNW 13.8 mph 19.6 mph N/A   Clear
1:55 PM 70.2 °F - 31.3 °F 24% 29.71 in 10.0 mi NW 12.7 mph 17.3 mph N/A   Clear
2:15 PM 70.7 °F - 29.3 °F 21% 29.70 in 10.0 mi NW 12.7 mph 18.4 mph N/A   Scattered Clouds
2:35 PM 71.4 °F - 27.9 °F 20% 29.69 in 10.0 mi NW 12.7 mph 18.4 mph N/A   Scattered Clouds
2:55 PM 71.6 °F - 26.6 °F 19% 29.68 in 10.0 mi NW 16.1 mph 21.9 mph N/A   Scattered Clouds
3:15 PM 70.3 °F - 24.3 °F 18% 29.68 in 10.0 mi NW 10.4 mph 16.1 mph N/A   Scattered Clouds
3:35 PM 72.5 °F - 24.8 °F 17% 29.68 in 10.0 mi NW 8.1 mph - N/A   Clear
3:55 PM 72.5 °F - 23.5 °F 16% 29.67 in 10.0 mi NW 13.8 mph - N/A   Clear
4:15 PM 72.5 °F - 22.5 °F 15% 29.67 in 10.0 mi NNW 3.5 mph 19.6 mph N/A   Clear
4:35 PM 70.9 °F - 21.9 °F 16% 29.66 in 10.0 mi WNW 18.4 mph 21.9 mph N/A   Clear
4:55 PM 73.6 °F - 22.1 °F 15% 29.65 in 10.0 mi WNW 11.5 mph 17.3 mph N/A   Scattered Clouds
5:15 PM 73.6 °F - 20.5 °F 14% 29.65 in 10.0 mi NW 10.4 mph 19.6 mph N/A   Scattered Clouds
5:35 PM 71.1 °F - 20.1 °F 15% 29.65 in 10.0 mi NW 9.2 mph 17.3 mph N/A   Clear
5:55 PM 70.7 °F - 21.4 °F 16% 29.65 in 10.0 mi West 11.5 mph - N/A   Clear
6:15 PM 70.7 °F - 21.6 °F 16% 29.65 in 10.0 mi WNW 6.9 mph - N/A   Clear
6:35 PM 71.1 °F - 19.8 °F 14% 29.65 in 10.0 mi West 9.2 mph - N/A   Scattered Clouds
6:55 PM 71.4 °F - 16.9 °F 13% 29.65 in 10.0 mi West 11.5 mph - N/A   Scattered Clouds
7:15 PM 68.9 °F - 18.5 °F 15% 29.65 in 10.0 mi West 9.2 mph - N/A   Clear
7:35 PM 69.4 °F - 22.8 °F 17% 29.65 in 10.0 mi WSW 15.0 mph - N/A   Clear
7:55 PM 66.0 °F - 24.4 °F 21% 29.65 in 10.0 mi WSW 12.7 mph - N/A   Clear
8:15 PM 61.5 °F - 26.6 °F 27% 29.65 in 10.0 mi WSW 8.1 mph - N/A   Clear
8:35 PM 57.2 °F - 27.5 °F 32% 29.65 in 10.0 mi SW 8.1 mph - N/A   Clear
8:55 PM 54.5 °F - 28.4 °F 37% 29.65 in 10.0 mi SW 8.1 mph - N/A   Clear
9:15 PM 52.5 °F - 29.3 °F 41% 29.66 in 10.0 mi SW 5.8 mph - N/A   Clear
9:35 PM 53.2 °F - 29.5 °F 40% 29.66 in 10.0 mi WSW 3.5 mph - N/A   Clear
10:35 PM 50.2 °F - 30.6 °F 47% 29.68 in 10.0 mi West 3.5 mph - N/A   Clear
10:55 PM 54.1 °F - 28.9 °F 38% 29.67 in 10.0 mi Calm Calm - N/A   Clear
11:15 PM 53.8 °F - 29.8 °F 40% 29.67 in 10.0 mi Calm Calm - N/A   Clear
11:35 PM 44.1 °F 40.8 °F 31.8 °F 62% 29.68 in 10.0 mi SW 5.8 mph - N/A   Clear